x

Kenosha, Wi (knsw3) Weather Station

5:00pm - Thu 24th Jul 2014 All times are CDT. -5 hours from GMT.

  • Wind
    6mph
  • Air Temp 67°f
  • Sea Pressure 1019.6mb
  • Kenosha, Wi
  • Kenosha, Wi

More Historic Weather Station data

Upgrade to MSW Pro to gain access to the past 30 days of data for over 8000 Wavebouys and Weather Stations around the globe.

Join Pro

Comparision Forecast

View Surf forecast
   
Thu 07/24 5:00pm 6
mph
1019.6mb 67f
4:50pm 6 7 mph 1019.3mb 68f
4:40pm 6 8 mph 1019.3mb 67f
4:30pm 7 8 mph 1019mb 67f
4:20pm 7 8 mph 1019mb 67f
4:10pm 7 8 mph 1019.3mb 66f
4:00pm 8
mph
1019.3mb 67f
3:50pm 7
mph
1019.3mb 67f
3:40pm 6
mph
1020mb 67f
3:30pm 5 6 mph 1020mb 67f
3:20pm 5
mph
1020mb 67f
3:10pm 5 6 mph 1020mb 66f
3:00pm 5 6 mph 1020mb 66f
2:50pm 6
mph
1020mb 65f
2:40pm 5 6 mph 1020.3mb 65f
2:30pm 5
mph
1020.3mb 64f
2:20pm 3 6 mph 1020.7mb 64f
2:10pm 5 6 mph 1021mb 65f
2:00pm 5 6 mph 1021mb 64f
1:50pm 6 7 mph 1021mb 64f
1:40pm 7 8 mph 1021mb 63f
1:30pm 6 7 mph 1021.3mb 63f
1:20pm 6 7 mph 1021.3mb 62f
1:10pm 6
mph
1021.3mb 63f
1:00pm 5 6 mph 1021.7mb 62f
12:50pm 5 6 mph 1021.7mb 62f
12:40pm 5 6 mph 1022mb 62f
12:30pm 5 6 mph 1022mb 62f
12:20pm 5 6 mph 1022mb 62f
12:10pm 5 6 mph 1022mb 62f
12:00pm 5 7 mph 1022mb 62f
11:50am 7
mph
1022mb 62f
11:40am 6 7 mph 1022mb 62f
11:30am 6 7 mph 1022mb 61f
11:20am 6 8 mph 1022.4mb 61f
11:10am 7 8 mph 1022.4mb 61f
11:00am 7 8 mph 1022mb 61f
10:50am 7 9 mph 1022mb 61f
10:40am 7 9 mph 1022mb 61f
10:30am 7 9 mph 1022mb 61f
10:20am 7 10 mph 1022mb 60f
10:10am 9 11 mph 1022mb 60f
10:00am 10 11 mph - 60f
9:50am 10 11 mph - 60f
9:40am 10 13 mph - 60f
9:30am 11 14 mph - 60f
9:20am 13 14 mph - 60f
9:10am 11 13 mph - 60f
9:00am 10 13 mph - 60f
8:50am 10 11 mph - 60f
8:40am 9 11 mph - 60f
8:30am 11 14 mph - 60f
8:20am 11 15 mph - 60f
8:10am 13 16 mph - 60f
8:00am 14 15 mph - 60f
7:50am 10 13 mph - 60f
7:40am 10 11 mph - 60f
7:30am 10 11 mph - 60f
7:20am 10 11 mph - 60f
7:10am 9 10 mph - 59f
7:00am 8 9 mph - 59f
6:50am 9
mph
- 58f
6:40am 9 11 mph - 58f
6:30am 10 13 mph - 58f
6:20am 10 13 mph - 58f
6:10am 11 13 mph - 58f
6:00am 10 13 mph - 58f
5:50am 9 13 mph - 58f
5:40am 11 14 mph - 58f
5:30am 11 13 mph - 58f
5:20am 8 9 mph - 58f
5:10am 8 9 mph - 58f
5:00am 7 10 mph - 58f
4:50am 8 9 mph - 58f
4:40am 8 9 mph - 58f
4:30am 8 9 mph - 58f
4:20am 8 9 mph - 58f
4:10am 7 8 mph - 58f
4:00am 7 8 mph - 58f
3:50am 8 9 mph - 58f
3:40am 7 8 mph - 58f
3:30am 7 8 mph - 58f
3:20am 7 8 mph - 58f
3:10am 7 8 mph - 58f
3:00am 7 8 mph - 58f
2:50am 6 8 mph - 58f
2:40am 6 7 mph - 59f
2:30am 7 8 mph - 59f
2:20am 7 8 mph - 60f
2:10am 8
mph
- 60f
1:00am 9 11 mph - 60f
12:50am 9
mph
- 60f
12:40am 8 9 mph - 60f
12:30am 8 10 mph - 60f
12:20am 9 11 mph - 60f
12:10am 10 11 mph - 60f
12:00am 9 10 mph - 60f
Wed 07/23 11:50pm 10 13 mph - 61f
11:40pm 10 11 mph - 61f
11:30pm 10 13 mph - 61f
11:20pm 11 14 mph - 62f
11:10pm 13 14 mph - 61f
11:00pm 11 14 mph - 61f
10:50pm 13 14 mph - 61f
10:40pm 13 15 mph - 61f
10:30pm 14 15 mph - 61f
10:20pm 13 15 mph - 61f
10:10pm 13 15 mph - 61f
10:00pm 13 14 mph - 62f
9:50pm 13 16 mph - 62f
9:40pm 15 17 mph - 62f
9:30pm 14 16 mph - 62f
9:20pm 15 17 mph - 62f
9:10pm 15 16 mph - 62f
9:00pm 15 18 mph - 62f
8:50pm 15 17 mph - 62f
8:40pm 15 16 mph - 61f
8:30pm 14 15 mph - 61f
8:20pm 14 15 mph - 60f
8:10pm 13 14 mph - 60f
8:00pm 14 15 mph - 61f
7:50pm 14 15 mph - 61f
7:40pm 13 14 mph - 61f
7:30pm 13 14 mph - 60f
7:20pm 11 15 mph - 60f
7:10pm 14 15 mph - 60f
7:00pm 15 16 mph - 61f
6:50pm 15 17 mph - 61f
6:40pm 15 18 mph - 61f
6:30pm 17 18 mph - 61f
6:20pm 16 17 mph - 61f
6:10pm 15 18 mph - 61f
6:00pm 17 18 mph - 61f
5:50pm 15 18 mph - 60f
5:40pm 16 18 mph - 60f
5:30pm 17 21 mph - 60f
5:20pm 17 22 mph - 60f
5:10pm 20 23 mph - 60f
5:00pm 18 22 mph - 60f
4:50pm 18 22 mph - 60f
4:40pm 21 22 mph - 60f
4:30pm 18 20 mph - 60f
4:20pm 16 18 mph - 60f
4:10pm 17 21 mph - 60f
4:00pm 15 18 mph - 60f
3:50pm 17 18 mph - 60f
3:40pm 14 17 mph - 59f
3:30pm 16 20 mph - 60f
3:20pm 16 20 mph - 60f
3:10pm 18 21 mph - 60f
3:00pm 20 21 mph - 60f
2:50pm 15 20 mph - 60f
2:40pm 17 18 mph - 60f
2:30pm 16 17 mph - 60f
2:20pm 14 16 mph - 60f
2:10pm 13 14 mph - 60f
2:00pm 13 15 mph - 60f
1:50pm 14 15 mph - 60f
1:40pm 13 15 mph - 61f
1:30pm 14 17 mph - 60f
1:20pm 16 20 mph - 60f
1:10pm 17 23 mph - 60f
1:00pm 20 22 mph - 61f
12:50pm 18 21 mph - 60f
12:40pm 16 20 mph - 61f
12:30pm 17 20 mph - 60f
12:20pm 18 22 mph - 60f
12:10pm 20 24 mph - 60f
12:00pm 21 25 mph - 60f
11:50am 24 26 mph - 60f
11:40am 24 28 mph - 63f
11:30am 25 29 mph - 61f
11:20am 23 28 mph - 60f
11:10am 23 26 mph - 60f
11:00am 23 26 mph - 60f
10:50am 24 29 mph - 61f
10:40am 23 26 mph - 62f
10:30am 23 26 mph - 60f
10:20am 23 28 mph - 61f
10:10am 20 21 mph - 60f
10:00am 18 23 mph - 60f
9:50am 18 24 mph - 60f
9:40am 22 24 mph - 62f
9:30am 22 25 mph - 61f
9:20am 22 26 mph - 60f
9:10am 21 22 mph - 60f
9:00am 22 24 mph - 60f
8:50am 20 23 mph - 60f
8:40am 21 26 mph - 60f
8:30am 21 25 mph - 60f
8:20am 24 25 mph - 60f
8:10am 23 26 mph - 60f
8:00am 24 26 mph - 60f
7:50am 23 28 mph - 60f
7:40am 23 26 mph - 60f
7:30am 23 28 mph - 60f
7:20am 24 28 mph - 60f
7:10am 24 28 mph - 60f
7:00am 22 26 mph - 60f
6:50am 22 26 mph - 60f
6:40am 23 25 mph - 60f
6:30am 21 25 mph - 60f
6:20am 23 24 mph - 60f
6:10am 21 25 mph - 60f
6:00am 22 25 mph - 60f
5:50am 23 26 mph - 60f
5:40am 23 25 mph - 60f
5:30am 24 28 mph - 60f
5:20am 22 26 mph - 61f
5:10am 22 25 mph - 61f
5:00am 23 28 mph - 61f
4:50am 23 26 mph - 61f
4:40am 22 24 mph - 61f
4:30am 22 26 mph - 61f
4:20am 24 26 mph - 61f
4:10am 21 23 mph - 61f
4:00am 21 23 mph - 62f
3:50am 21 23 mph - 62f
3:40am 21 22 mph - 61f
3:30am 17 22 mph - 59f
3:20am 21 23 mph - 59f
3:10am 20 22 mph - 59f
3:00am 21 23 mph - 59f
2:50am 21 22 mph - 59f
2:40am 18 22 mph - 59f
2:30am 18 20 mph - 59f
2:20am 17 18 mph - 58f
2:10am 18
mph
- 59f
2:00am 14 16 mph - 58f
1:50am 14 16 mph - 57f
1:40am 15 16 mph - 58f
1:30am 15 20 mph - 59f
1:20am 18 23 mph - 60f
1:10am 21 24 mph - 61f
1:00am 18 20 mph - 60f
12:50am 18 25 mph - 61f
12:40am 21 25 mph - 61f
12:30am 20 23 mph - 62f
12:20am 21 23 mph - 63f
12:10am 21 23 mph - 62f
12:00am 21 23 mph - 62f
Tue 07/22 11:50pm 23 24 mph - 64f
11:40pm 20 21 mph - 64f
11:30pm 20 23 mph - 66f
11:20pm 23 26 mph - 66f
11:10pm 25 26 mph - 66f
11:00pm 25 31 mph - 68f
10:50pm 30 33 mph - 76f
10:40pm 14 17 mph - 74f
10:30pm 14 16 mph - 73f
10:20pm 11 23 mph - 74f
10:10pm 21 23 mph - 82f
10:00pm 13 17 mph - 82f
9:50pm 16 22 mph - 83f
9:40pm 15 23 mph - 84f
9:30pm 10 18 mph - 85f
9:20pm 10 20 mph - 86f
9:10pm 11 16 mph - 86f
9:00pm 11 16 mph - 86f
8:50pm 9 14 mph - 86f
8:40pm 10 14 mph - 87f
8:30pm 7 13 mph - 87f
8:20pm 8 11 mph - 87f
8:10pm 7 10 mph - 87f
8:00pm 6 13 mph - 87f
7:50pm 7 11 mph - 87f
7:40pm 7 11 mph - 88f
7:30pm 8 13 mph - 88f
7:20pm 8 15 mph - 88f
7:10pm 14 17 mph - 88f
7:00pm 9 16 mph - 88f
6:50pm 8 15 mph - 88f
6:40pm 11 15 mph - 88f
6:30pm 13 17 mph - 87f
6:20pm 13 16 mph - 88f
6:10pm 9 16 mph - 87f
6:00pm 10 20 mph - 87f
5:50pm 11 18 mph - 87f
5:40pm 10 20 mph - 87f
5:30pm 16 20 mph - 86f
5:20pm 14 21 mph - 87f
5:10pm 16 21 mph - 87f
5:00pm 14 23 mph - 87f
4:50pm 10 18 mph - 87f
4:40pm 15 22 mph - 86f
4:30pm 17 24 mph - 86f
4:20pm 14 24 mph - 86f
4:10pm 20 25 mph - 86f
4:00pm 15 24 mph - 87f
3:50pm 16 24 mph - 87f
3:40pm 15 24 mph - 87f
3:30pm 13 22 mph - 88f
3:20pm 16 22 mph - 88f
3:10pm 15 21 mph - 88f
3:00pm 13 22 mph - 88f
2:50pm 17 21 mph - 87f
2:40pm 18 24 mph - 87f
2:30pm 15 23 mph - 87f
2:20pm 11 21 mph - 87f
2:10pm 14 24 mph - 87f
2:00pm 14 23 mph - 87f
1:50pm 16 23 mph - 87f
1:40pm 16 24 mph - 86f
1:30pm 14 21 mph - 87f
1:20pm 18 24 mph - 86f
1:10pm 17 23 mph - 86f
1:00pm 14 21 mph - 86f
12:50pm 13 23 mph - 85f
12:40pm 15 21 mph - 85f
12:30pm 16 23 mph - 85f
12:20pm 13 21 mph - 84f
12:10pm 14 22 mph - 84f
12:00pm 15 25 mph - 84f
11:50am 18 26 mph - 84f
11:40am 14 23 mph - 84f
11:30am 13 28 mph - 84f
11:20am 20 30 mph - 84f
11:10am 17 26 mph - 83f
11:00am 13 22 mph - 83f
10:50am 14 20 mph - 82f
10:40am 14 21 mph - 82f
10:30am 14 20 mph - 81f
10:20am 14 22 mph - 81f
10:10am 14 24 mph - 81f
10:00am 15 23 mph - 80f
9:50am 16 22 mph - 80f
9:40am 15 23 mph - 79f
9:30am 14 23 mph - 79f
9:20am 10 23 mph - 80f
9:10am 14 22 mph - 79f
9:00am 9 17 mph - 76f
8:50am 8 16 mph - 69f
8:40am 11 16 mph - 67f
8:30am 14 18 mph - 66f
8:20am 14 20 mph - 66f
8:10am 17 21 mph - 64f
8:00am 18 20 mph - 63f
7:50am 17 20 mph - 65f
7:40am 17 20 mph - 64f
7:30am 14 18 mph - 64f
7:20am 17 20 mph - 62f
7:10am 15 18 mph - 63f
7:00am 15 17 mph - 63f
6:50am 15 17 mph - 62f
6:40am 15 17 mph - 62f
6:30am 15 16 mph - 64f
6:20am 13 16 mph - 64f
6:10am 13 14 mph - 62f
6:00am 10 13 mph - 63f
5:50am 8 9 mph - 65f
5:40am 7 8 mph - 67f
5:30am 6 8 mph - 66f
5:20am 6 8 mph - 70f
5:10am 5 8 mph - 69f
5:00am 6 9 mph - 68f
4:50am 7 9 mph - 69f
4:40am 7 10 mph - 66f
4:30am 8 11 mph - 66f
4:20am 8 13 mph - 68f
4:10am 10 14 mph - 68f
4:00am 9 10 mph - 68f
3:50am 9 11 mph - 69f
3:40am 8 10 mph - 71f
3:30am 8 13 mph - 71f
3:20am 8 10 mph - 70f
3:10am 8 11 mph - 70f
3:00am 7 9 mph - 70f
2:50am 8 9 mph - 70f
2:40am 8 9 mph - 71f
2:30am 7 9 mph - 70f
2:20am 7 9 mph - 71f
2:10am 7 8 mph - 72f
2:00am 6 8 mph - 72f
1:50am 6 9 mph - 72f
1:40am 7 9 mph - 72f
1:30am 8 9 mph - 72f
1:20am 8 9 mph - 71f
1:10am 8 9 mph - 72f
1:00am 7
mph
- 71f
12:50am 5 9 mph - 69f
12:40am 7 8 mph - 72f
12:30am 8 9 mph - 73f
12:20am 9
mph
- 73f
12:10am 7 9 mph - 70f
12:00am 8 9 mph - 70f
Mon 07/21 11:50pm 7 8 mph - 67f
11:40pm 8 9 mph - 72f
11:30pm 7 9 mph - 73f
11:20pm 6 8 mph - 71f
11:10pm 8 10 mph - 71f
11:00pm 9 10 mph - 70f
10:50pm 8 9 mph - 71f
10:40pm 6 7 mph - 71f
10:30pm 6 11 mph - 71f
10:20pm 9 13 mph - 71f
10:10pm 11 14 mph - 70f
10:00pm 13 15 mph - 71f
9:50pm 13 15 mph - 71f
9:40pm 14 16 mph - 72f
9:30pm 14 16 mph - 72f
9:20pm 15 18 mph - 72f
9:10pm 15 18 mph - 73f
9:00pm 14 18 mph - 73f
8:50pm 14 17 mph - 73f
8:40pm 14 18 mph - 73f
8:30pm 11 16 mph - 74f
8:20pm 13 18 mph - 73f
8:10pm 15 17 mph - 73f
8:00pm 15 17 mph - 74f
7:50pm 13 16 mph - 74f
7:40pm 13 15 mph - 74f
7:30pm 11 14 mph - 74f
7:20pm 13 15 mph - 74f
7:10pm 13 15 mph - 74f
7:00pm 13 14 mph - 74f
6:50pm 10 13 mph - 74f
6:40pm 10 13 mph - 74f
6:30pm 10 11 mph - 74f
6:20pm 9 11 mph - 74f
6:10pm 9 11 mph - 73f
6:00pm 7 10 mph - 73f
5:50pm 8 10 mph - 73f
5:40pm 8 10 mph - 73f
5:30pm 8 10 mph - 73f
5:20pm 8 10 mph - 73f
5:10pm 8 10 mph - 72f
5:00pm 9 10 mph - 72f
4:50pm 10 11 mph - 72f
4:40pm 11 13 mph - 73f
4:30pm 9 13 mph - 72f
4:20pm 10 13 mph - 72f
4:10pm 10 11 mph - 72f
4:00pm 10 13 mph - 72f
3:50pm 11 14 mph - 72f
3:40pm 11 14 mph - 71f
3:30pm 13 15 mph - 72f
3:20pm 11 14 mph - 71f
3:10pm 11 15 mph - 71f
3:00pm 10 13 mph - 71f
2:50pm 13 14 mph - 71f
2:40pm 10 11 mph - 71f
2:30pm 10 14 mph - 71f
2:20pm 10 14 mph - 71f
2:10pm 11 14 mph - 72f
2:00pm 11 14 mph - 71f
1:50pm 11 14 mph - 71f
1:40pm 10 15 mph - 71f
1:30pm 11 14 mph - 71f
1:20pm 9 14 mph - 70f
1:10pm 11 15 mph - 70f
1:00pm 13 16 mph - 71f
12:50pm 10 13 mph - 69f
12:40pm 11 14 mph - 70f
12:30pm 10 15 mph - 70f
12:20pm 14 17 mph - 70f
12:10pm 11 14 mph - 70f
12:00pm 11 16 mph - 69f
11:50am 11 14 mph - 70f
11:40am 6 14 mph - 69f
11:30am 9 16 mph - 69f
11:20am 9 15 mph - 69f
11:10am 14 16 mph - 69f
11:00am 13 16 mph - 69f
10:50am 13 15 mph - 69f
10:40am 15 17 mph - 68f
10:30am 13 16 mph - 69f
10:20am 14 15 mph - 68f
10:10am 15 16 mph - 69f
10:00am 14 15 mph - 69f
9:50am 13 16 mph - 68f
9:40am 11 15 mph - 69f
9:30am 13 15 mph - 70f
9:20am 13 15 mph - 68f
9:10am 13 14 mph - 67f
9:00am 13 14 mph - 67f
8:50am 14 15 mph - 67f
8:40am 10 13 mph - 67f
8:30am 9 11 mph - 67f
8:20am 8 9 mph - 67f
8:10am 7 8 mph - 67f
8:00am 7 8 mph - 67f
7:50am 7
mph
- 67f
7:40am 6
mph
- 67f
7:30am 3 6 mph - 66f
7:20am 2 5 mph - 67f
7:10am 3 5 mph - 67f
7:00am 2 5 mph - 67f
6:50am 3 5 mph - 67f
6:40am 2 5 mph - 68f
6:30am 3 5 mph - 67f
6:20am 2 3 mph - 67f
6:10am 2 5 mph - 66f
6:00am 3 5 mph - 66f
5:50am 2 7 mph - 66f
5:40am 3 5 mph - 66f
5:30am 5 6 mph - 66f
5:20am 5 6 mph - 66f
5:10am 3 5 mph - 66f
5:00am 3 5 mph - 66f
4:50am 3 5 mph - 67f
4:40am 2 3 mph - 66f
4:30am 2 3 mph - 67f
4:20am  -  mph - 66f
4:10am  -  2 mph - 66f
4:00am 1 2 mph - 66f
3:50am 1 2 mph - 66f
3:40am 1 3 mph - 67f
3:30am  -  2 mph - 67f
3:20am 2 3 mph - 67f
3:10am 3 5 mph - 68f
3:00am 3 5 mph - 68f
2:50am 5 6 mph - 68f
2:40am 3 5 mph - 68f
2:30am 5 6 mph - 68f
2:20am 5 6 mph - 68f
2:10am 6
mph
- 68f
2:00am 5 6 mph - 68f
1:50am 6 7 mph - 69f
1:40am 6 7 mph - 68f
1:30am 6 7 mph - 68f
1:20am 7
mph
- 68f
1:10am 6 8 mph - 68f
1:00am 7
mph
- 69f
12:50am 6 7 mph - 69f
12:40am 7
mph
- 69f
12:30am 5 7 mph - 69f
12:20am 6 7 mph - 69f
12:10am 5 7 mph - 69f
12:00am 6 7 mph - 69f
Sun 07/20 11:50pm 7
mph
- 69f
11:40pm 6 7 mph - 70f
11:30pm 6 7 mph - 70f
11:20pm 6 9 mph - 70f